Previsão horária em Abkhazia

Hoje, 17 Abril, Sábado

Tempo Temperatura Precipitação Vento Pressão Humidade
00:00 +9°C° 0.3 mm 2 m/s 688 mmHg 86%
01:00 +8°C° 0.3 mm 2 m/s 688 mmHg 87%
02:00 +8°C° 0.3 mm 2 m/s 688 mmHg 88%
03:00 +8°C° 0.3 mm 2 m/s 688 mmHg 90%
04:00 +8°C° 0.4 mm 2 m/s 688 mmHg 90%
05:00 +8°C° 0.4 mm 2 m/s 688 mmHg 91%
06:00 +8°C° 0.4 mm 2 m/s 688 mmHg 91%
07:00 +9°C° 0.3 mm 2 m/s 688 mmHg 90%
08:00 +10°C° 0.3 mm 1 m/s 688 mmHg 89%
09:00 +10°C° 0.3 mm 1 m/s 688 mmHg 88%
10:00 +11°C° 0.5 mm 1 m/s 688 mmHg 88%
11:00 +11°C° 0.5 mm 1 m/s 688 mmHg 87%
12:00 +11°C° 0.5 mm 1 m/s 688 mmHg 87%
13:00 +10°C° 1 mm 1 m/s 688 mmHg 89%
14:00 +10°C° 1 mm 1 m/s 688 mmHg 92%
15:00 +10°C° 1 mm 1 m/s 688 mmHg 94%
16:00 +10°C° 0.9 mm 1 m/s 688 mmHg 94%
17:00 +10°C° 0.9 mm 1 m/s 688 mmHg 93%
18:00 +9°C° 0.9 mm 2 m/s 688 mmHg 93%
19:00 +9°C° 0.1 mm 2 m/s 688 mmHg 93%
20:00 +9°C° 0.1 mm 2 m/s 688 mmHg 94%
21:00 +9°C° 0.1 mm 2 m/s 688 mmHg 94%
22:00 +10°C° 0.1 mm 1 m/s 688 mmHg 94%
23:00 +10°C° 0.1 mm 1 m/s 688 mmHg 94%

Amanhã, 18 Abril, Domingo

Tempo Temperatura Precipitação Vento Pressão Humidade
00:00 +10°C° 0.1 mm 1 m/s 688 mmHg 94%
01:00 +9°C° 0.3 mm 2 m/s 687 mmHg 93%
02:00 +9°C° 0.3 mm 2 m/s 687 mmHg 93%
03:00 +10°C° 0.3 mm 2 m/s 687 mmHg 92%
04:00 +10°C° 0.1 mm 2 m/s 686 mmHg 92%
05:00 +10°C° 0.1 mm 2 m/s 686 mmHg 91%
06:00 +10°C° 0.1 mm 2 m/s 686 mmHg 90%
07:00 +12°C° 0.2 mm 2 m/s 686 mmHg 89%
08:00 +12°C° 0.2 mm 2 m/s 686 mmHg 89%
09:00 +13°C° 0.2 mm 2 m/s 686 mmHg 89%
10:00 +14°C° 0.2 mm 2 m/s 686 mmHg 83%
11:00 +16°C° 0.2 mm 2 m/s 686 mmHg 77%
12:00 +17°C° 0.2 mm 2 m/s 686 mmHg 71%
13:00 +17°C° 0.7 mm 2 m/s 686 mmHg 75%
14:00 +16°C° 0.7 mm 2 m/s 686 mmHg 78%
15:00 +15°C° 0.7 mm 2 m/s 686 mmHg 81%
16:00 +15°C° 0.2 mm 2 m/s 687 mmHg 82%
17:00 +15°C° 0.2 mm 2 m/s 687 mmHg 83%
18:00 +14°C° 0.2 mm 1 m/s 687 mmHg 83%
19:00 +14°C° 0.4 mm 2 m/s 687 mmHg 86%
20:00 +13°C° 0.4 mm 2 m/s 687 mmHg 89%
21:00 +12°C° 0.4 mm 2 m/s 687 mmHg 92%
22:00 +12°C° 0.1 mm 2 m/s 687 mmHg 91%
23:00 +12°C° 0.1 mm 2 m/s 687 mmHg 91%

Depois de amanhã, 19 Abril, Segunda-feira

Tempo Temperatura Precipitação Vento Pressão Humidade
00:00 +12°C° 0.1 mm 2 m/s 687 mmHg 90%
01:00 +12°C° 0 mm 2 m/s 687 mmHg 89%
02:00 +12°C° 0 mm 2 m/s 687 mmHg 89%
03:00 +12°C° 0 mm 2 m/s 686 mmHg 88%
04:00 +12°C° 0.2 mm 2 m/s 686 mmHg 88%
05:00 +12°C° 0.2 mm 2 m/s 686 mmHg 88%
06:00 +12°C° 0.2 mm 2 m/s 686 mmHg 88%
07:00 +13°C° 0.1 mm 2 m/s 686 mmHg 87%
08:00 +13°C° 0.1 mm 2 m/s 686 mmHg 85%
09:00 +14°C° 0.1 mm 2 m/s 686 mmHg 83%
10:00 +15°C° 0.1 mm 2 m/s 686 mmHg 80%
11:00 +16°C° 0.1 mm 2 m/s 686 mmHg 76%
12:00 +16°C° 0.1 mm 2 m/s 686 mmHg 72%
13:00 +17°C° 0 mm 2 m/s 686 mmHg 69%
14:00 +18°C° 0 mm 2 m/s 686 mmHg 65%
15:00 +19°C° 0 mm 2 m/s 685 mmHg 62%
16:00 +18°C° 0 mm 2 m/s 685 mmHg 65%
17:00 +18°C° 0 mm 2 m/s 685 mmHg 69%
18:00 +17°C° 0 mm 2 m/s 685 mmHg 73%
19:00 +16°C° 0 mm 2 m/s 684 mmHg 72%
20:00 +16°C° 0 mm 3 m/s 684 mmHg 71%
21:00 +14°C° 0 mm 3 m/s 684 mmHg 70%
22:00 +14°C° 0 mm 4 m/s 683 mmHg 68%
23:00 +13°C° 0 mm 4 m/s 682 mmHg 67%

20 Abril, Terça-feira

Tempo Temperatura Precipitação Vento Pressão Humidade
00:00 +13°C° 0 mm 4 m/s 682 mmHg 66%
01:00 +13°C° 0.1 mm 4 m/s 681 mmHg 68%
02:00 +14°C° 0.1 mm 4 m/s 680 mmHg 69%
03:00 +14°C° 0.1 mm 4 m/s 680 mmHg 70%
04:00 +14°C° 0.1 mm 4 m/s 680 mmHg 71%
05:00 +14°C° 0.1 mm 4 m/s 679 mmHg 72%
06:00 +16°C° 0.1 mm 3 m/s 679 mmHg 73%
07:00 +16°C° 0.1 mm 3 m/s 679 mmHg 74%
08:00 +16°C° 0.1 mm 3 m/s 680 mmHg 75%
09:00 +17°C° 0.1 mm 3 m/s 680 mmHg 76%
10:00 +15°C° 0.5 mm 4 m/s 680 mmHg 80%
11:00 +14°C° 0.5 mm 4 m/s 681 mmHg 85%
12:00 +14°C° 0.5 mm 5 m/s 681 mmHg 90%
13:00 +13°C° 0.7 mm 4 m/s 681 mmHg 90%
14:00 +13°C° 0.7 mm 3 m/s 681 mmHg 91%
15:00 +14°C° 0.7 mm 2 m/s 681 mmHg 92%
16:00 +14°C° 1.9 mm 2 m/s 682 mmHg 94%
17:00 +13°C° 1.9 mm 2 m/s 682 mmHg 96%
18:00 +12°C° 1.9 mm 2 m/s 682 mmHg 98%
19:00 +12°C° 2.5 mm 2 m/s 683 mmHg 98%
20:00 +12°C° 2.5 mm 2 m/s 683 mmHg 98%
21:00 +10°C° 2.5 mm 2 m/s 684 mmHg 99%
22:00 +10°C° 1 mm 2 m/s 684 mmHg 98%
23:00 +10°C° 1 mm 2 m/s 685 mmHg 98%

21 Abril, Quarta-feira

Tempo Temperatura Precipitação Vento Pressão Humidade
00:00 +11°C° 1 mm 1 m/s 685 mmHg 98%
01:00 +9°C° 0.3 mm 2 m/s 685 mmHg 97%
02:00 +9°C° 0.3 mm 2 m/s 685 mmHg 97%
03:00 +9°C° 0.3 mm 2 m/s 685 mmHg 96%
04:00 +9°C° 0.2 mm 2 m/s 685 mmHg 97%
05:00 +9°C° 0.2 mm 2 m/s 685 mmHg 97%
06:00 +9°C° 0.2 mm 1 m/s 685 mmHg 97%
07:00 +10°C° 0.2 mm 1 m/s 686 mmHg 96%
08:00 +10°C° 0.2 mm 1 m/s 686 mmHg 96%
09:00 +10°C° 0.2 mm 1 m/s 686 mmHg 95%
10:00 +10°C° 0.5 mm 1 m/s 686 mmHg 95%
11:00 +10°C° 0.5 mm 1 m/s 686 mmHg 95%
12:00 +10°C° 0.5 mm 1 m/s 686 mmHg 94%
13:00 +11°C° 0.1 mm 1 m/s 686 mmHg 91%
14:00 +12°C° 0.1 mm 2 m/s 686 mmHg 88%
15:00 +12°C° 0.1 mm 2 m/s 686 mmHg 84%
16:00 +12°C° 0.2 mm 2 m/s 686 mmHg 87%
17:00 +11°C° 0.2 mm 1 m/s 686 mmHg 90%
18:00 +11°C° 0.2 mm 1 m/s 686 mmHg 92%
19:00 +10°C° 0 mm 1 m/s 687 mmHg 93%
20:00 +10°C° 0 mm 1 m/s 687 mmHg 95%
21:00 +9°C° 0 mm 1 m/s 688 mmHg 96%
22:00 +9°C° 0 mm 1 m/s 688 mmHg 95%
23:00 +8°C° 0 mm 1 m/s 688 mmHg 94%

22 Abril, Quinta-feira

Tempo Temperatura Precipitação Vento Pressão Humidade
00:00 +8°C° 0 mm 1 m/s 688 mmHg 93%
01:00 +8°C° 0 mm 1 m/s 688 mmHg 94%
02:00 +8°C° 0 mm 1 m/s 688 mmHg 94%
03:00 +8°C° 0 mm 1 m/s 688 mmHg 95%
04:00 +8°C° 0 mm 1 m/s 688 mmHg 94%
05:00 +8°C° 0 mm 1 m/s 689 mmHg 93%
06:00 +8°C° 0 mm 1 m/s 689 mmHg 92%
07:00 +9°C° 0 mm 1 m/s 689 mmHg 87%
08:00 +10°C° 0 mm 1 m/s 689 mmHg 81%
09:00 +11°C° 0 mm 1 m/s 689 mmHg 76%
10:00 +12°C° 0 mm 2 m/s 689 mmHg 71%
11:00 +13°C° 0 mm 2 m/s 689 mmHg 67%
12:00 +14°C° 0 mm 2 m/s 689 mmHg 62%
13:00 +14°C° 0.1 mm 2 m/s 689 mmHg 63%
14:00 +14°C° 0.1 mm 2 m/s 689 mmHg 65%
15:00 +14°C° 0.1 mm 2 m/s 690 mmHg 66%
16:00 +13°C° 0.1 mm 2 m/s 689 mmHg 71%
17:00 +12°C° 0.1 mm 1 m/s 689 mmHg 75%
18:00 +12°C° 0.1 mm 1 m/s 689 mmHg 80%
19:00 +10°C° 0 mm 1 m/s 689 mmHg 84%
20:00 +9°C° 0 mm 1 m/s 690 mmHg 87%
21:00 +8°C° 0 mm 1 m/s 690 mmHg 91%
22:00 +8°C° 0 mm 1 m/s 690 mmHg 89%
23:00 +8°C° 0 mm 1 m/s 689 mmHg 86%
Mostrar mais